EW1015 Weather Reports


Display with metric or nautical units.
time (UTC)temp
F
wind
direction
speed
MPH
gust
MPH
rain 1hr
in
rain 24hr
in
rain mn
in
humidity
%
barometer
mb
20210305203033 52 296 0.0 5.0 0.00 0.00 0.00 30 1016.2
20210305201540 50 282 2.0 9.0 0.00 0.00 0.00 34 1016.4
20210305200355 51 303 0.0 7.0 0.00 0.00 0.00 29 1016.4
20210305194521 51 360 1.0 11.0 0.00 0.00 0.00 31 1016.4
20210305193124 51 312 1.0 13.0 0.00 0.00 0.00 30 1016.4
20210305191549 51 279 2.0 9.0 0.00 0.00 0.00 29 1016.5
20210305190027 50 303 0.0 12.0 0.00 0.00 0.00 30 1016.6
20210305184527 50 288 2.0 10.0 0.00 0.00 0.00 27 1016.8
20210305183247 50 5 3.0 11.0 0.00 0.00 0.00 28 1016.9
20210305181939 50 307 0.0 6.0 0.00 0.00 0.00 27 1017.2
20210305180249 50 67 2.0 9.0 0.00 0.00 0.00 28 1017.5
20210305175044 50 331 3.0 14.0 0.00 0.00 0.00 27 1017.7
20210305173207 49 275 2.0 9.0 0.00 0.00 0.00 29 1017.9
20210305171715 49 5 0.0 9.0 0.00 0.00 0.00 31 1017.9
20210305170215 49 310 2.0 10.0 0.00 0.00 0.00 33 1018.0
20210305164624 48 5 3.0 14.0 0.00 0.00 0.00 32 1018.2
20210305163911 47 29 1.0 11.0 0.00 0.00 0.00 37 1018.3
20210305161755 47 241 1.0 11.0 0.00 0.00 0.00 35 1018.4
20210305160216 46 306 3.0 11.0 0.00 0.00 0.00 33 1018.5
20210305154622 46 46 3.0 8.0 0.00 0.00 0.00 34 1018.6
20210305153209 45 24 2.0 9.0 0.00 0.00 0.00 36 1018.7
20210305151619 45 53 2.0 11.0 0.00 0.00 0.00 34 1018.7
20210305150138 44 43 3.0 14.0 0.00 0.00 0.00 39 1018.8
20210305144555 44 11 1.0 10.0 0.00 0.00 0.00 40 1018.7
20210305143120 44 46 1.0 6.0 0.00 0.00 0.00 42 1018.7
20210305141629 42 42 1.0 12.0 0.00 0.00 0.00 47 1018.8
20210305140301 42 36 2.0 10.0 0.00 0.00 0.00 49 1018.9
20210305134559 41 321 2.0 16.0 0.00 0.00 0.00 51 1018.7
20210305133120 41 350 3.0 13.0 0.00 0.00 0.00 56 1018.6
20210305131551 41 24 1.0 8.0 0.00 0.00 0.00 58 1018.5
20210305130351 40 47 2.0 9.0 0.00 0.00 0.00 61 1018.3
20210305124529 39 49 0.0 8.0 0.00 0.00 0.00 65 1018.2
20210305123346 38 326 1.0 10.0 0.00 0.00 0.00 64 1017.9
20210305121625 37 29 0.0 9.0 0.00 0.00 0.00 66 1017.7
20210305120027 37 43 1.0 8.0 0.00 0.00 0.00 69 1017.4
20210305114548 37 20 0.0 4.0 0.00 0.00 0.00 71 1017.3
20210305113056 37 43 1.0 6.0 0.00 0.00 0.00 73 1017.1
20210305111518 38 27 0.0 0.0 0.00 0.00 0.00 73 1016.8
20210305110044 38 27 0.0 4.0 0.00 0.00 0.00 74 1016.6
20210305104653 38 20 0.0 5.0 0.00 0.00 0.00 75 1016.4
20210305103228 38 15 0.0 3.0 0.00 0.00 0.00 76 1016.1
20210305101644 39 15 0.0 0.0 0.00 0.00 0.00 75 1015.9
20210305100219 39 15 0.0 0.0 0.00 0.00 0.00 74 1015.7
20210305094755 40 15 0.0 2.0 0.00 0.01 0.00 73 1015.6
20210305093159 40 15 0.0 4.0 0.00 0.01 0.00 73 1015.2
20210305091649 40 23 0.0 0.0 0.00 0.01 0.00 72 1015.0
20210305090141 41 5 0.0 1.0 0.00 0.01 0.00 72 1014.8
20210305084618 41 5 0.0 5.0 0.00 0.01 0.00 71 1014.6
20210305083137 41 10 0.0 4.0 0.00 0.01 0.00 71 1014.4
20210305081614 42 5 0.0 4.0 0.00 0.01 0.00 71 1014.3
20210305080151 42 54 0.0 7.0 0.00 0.01 0.00 71 1014.1
20210305074642 43 34 0.0 5.0 0.00 0.01 0.00 72 1014.1
20210305073100 43 30 2.0 7.0 0.00 0.01 0.00 74 1014.0
20210305071540 43 36 0.0 6.0 0.00 0.01 0.00 77 1014.1
20210305070238 43 26 2.0 8.0 0.00 0.01 0.00 84 1013.9
20210305064557 42 48 0.0 9.0 0.00 0.01 0.00 90 1013.6
20210305063146 40 61 1.0 6.0 0.00 0.01 0.00 94 1013.4
20210305061600 38 52 0.0 0.0 0.00 0.01 0.00 92 1013.2
20210305060042 38 52 0.0 0.0 0.00 0.01 0.00 92 1012.9
20210305054545 37 53 0.0 5.0 0.00 0.01 0.00 90 1012.8
20210305053033 37 5 0.0 0.0 0.00 0.01 0.00 88 1012.3
20210305051526 38 5 0.0 0.0 0.00 0.01 0.00 86 1012.2
20210305050024 38 5 0.0 0.0 0.00 0.01 0.00 86 1012.1
20210305044531 39 5 0.0 0.0 0.00 0.01 0.01 85 1011.9
20210305043112 39 5 0.0 0.0 0.00 0.01 0.01 83 1012.0
20210305041529 40 5 0.0 0.0 0.00 0.01 0.01 83 1012.1
20210305040256 41 5 0.0 0.0 0.00 0.01 0.01 81 1012.1
20210305034543 41 5 0.0 0.0 0.00 0.01 0.01 78 1012.0
20210305033039 42 5 0.0 0.0 0.00 0.01 0.01 78 1012.0
20210305031520 43 5 0.0 0.0 0.00 0.01 0.01 76 1011.9
20210305030049 44 5 0.0 0.0 0.00 0.01 0.01 74 1012.0
20210305024526 45 5 0.0 2.0 0.00 0.01 0.01 72 1012.0
20210305023020 46 93 0.0 0.0 0.00 0.01 0.01 70 1012.0
20210305021539 46 93 0.0 0.0 0.00 0.01 0.01 66 1011.8
20210305020125 45 93 0.0 3.0 0.00 0.01 0.01 66 1011.5
20210305014512 46 10 0.0 0.0 0.00 0.01 0.01 65 1011.2
20210305011810 48 10 0.0 0.0 0.00 0.01 0.01 61 1010.9
20210305011525 48 10 0.0 0.0 0.00 0.01 0.01 60 1010.9
20210305010145 49 10 0.0 0.0 0.00 0.01 0.01 58 1010.9
20210305010025 49 10 0.0 0.0 0.00 0.01 0.01 58 1010.9
20210305004906 50 10 0.0 0.0 0.00 0.01 0.01 53 1010.8
20210305003348 52 10 0.0 0.0 0.00 0.01 0.01 51 1010.8
20210305003052 52 10 0.0 0.0 0.00 0.01 0.01 51 1010.8
20210305000319 56 11 0.0 0.0 0.00 0.01 0.01 45 1010.6
20210304234802 58 10 0.0 0.0 0.00 0.01 0.01 35 1010.3
20210304233239 59 10 0.0 0.0 0.00 0.01 0.01 33 1010.3
20210304231646 61 10 0.0 0.0 0.00 0.01 0.01 32 1010.0
20210304230215 62 10 0.0 0.0 0.00 0.01 0.01 31 1009.9
20210304224632 63 11 0.0 5.0 0.00 0.01 0.01 31 1009.8
20210304223245 64 281 1.0 5.0 0.00 0.01 0.01 29 1009.7
20210304221703 65 286 0.0 3.0 0.00 0.01 0.01 33 1009.4
20210304220241 66 268 0.0 4.0 0.00 0.01 0.01 32 1009.3
20210304214634 66 263 0.0 3.0 0.00 0.01 0.01 32 1009.3
20210304213123 66 266 2.0 6.0 0.00 0.01 0.01 31 1009.4
20210304211631 67 281 0.0 4.0 0.00 0.01 0.01 31 1009.3
20210304210225 67 338 0.0 5.0 0.00 0.01 0.01 29 1009.3
20210304204631 67 277 3.0 5.0 0.00 0.01 0.01 31 1009.4